When you browse on this site, cookies collect data to enhance your experience and personalize the content and advertising you see.
Visit our Privacy Policy to learn more. By continuing to use the site, you agree to this use of cookies and data.
  • In Hungary
  • List of Countries
  • For 7 days
  • Water Temperature
  • Satellite Maps
  • Weather Map
  • News
  • Weather Widgets
  • user-avatar
    Login

    Hourly Weather Czubacz

    Today, 26 May, Sunday

    Time Temperature Precipitation Wind Pressure Humidity
    00:00 +12°C° 0 mm 1 mps 738 mmHg 90%
    01:00 +11°C° 0 mm 0 mps 738 mmHg 92%
    02:00 +11°C° 0 mm 0 mps 738 mmHg 92%
    03:00 +10°C° 0 mm 0 mps 738 mmHg 92%
    04:00 +10°C° 0 mm 0 mps 738 mmHg 92%
    05:00 +13°C° 0 mm 1 mps 738 mmHg 87%
    06:00 +15°C° 0 mm 1 mps 738 mmHg 81%
    07:00 +16°C° 0 mm 2 mps 738 mmHg 73%
    08:00 +18°C° 0 mm 3 mps 738 mmHg 69%
    09:00 +19°C° 0 mm 3 mps 738 mmHg 64%
    10:00 +20°C° 0 mm 4 mps 738 mmHg 60%
    11:00 +20°C° 0 mm 4 mps 738 mmHg 57%
    12:00 +21°C° 0 mm 4 mps 738 mmHg 55%
    13:00 +22°C° 0 mm 5 mps 738 mmHg 53%
    14:00 +22°C° 0 mm 4 mps 737 mmHg 53%
    15:00 +22°C° 0 mm 4 mps 737 mmHg 54%
    16:00 +22°C° 0 mm 4 mps 737 mmHg 54%
    17:00 +20°C° 0 mm 3 mps 737 mmHg 61%
    18:00 +19°C° 0 mm 2 mps 736 mmHg 68%
    19:00 +19°C° 0 mm 1 mps 736 mmHg 75%
    20:00 +18°C° 0 mm 1 mps 737 mmHg 77%
    21:00 +16°C° 0 mm 1 mps 737 mmHg 79%
    22:00 +15°C° 0 mm 1 mps 737 mmHg 82%
    23:00 +15°C° 0 mm 1 mps 737 mmHg 84%

    Tomorrow, 27 May, Monday

    Time Temperature Precipitation Wind Pressure Humidity
    00:00 +14°C° 0 mm 2 mps 737 mmHg 86%
    01:00 +14°C° 0 mm 2 mps 736 mmHg 89%
    02:00 +14°C° 0 mm 2 mps 736 mmHg 90%
    03:00 +13°C° 0 mm 2 mps 736 mmHg 92%
    04:00 +13°C° 0 mm 2 mps 736 mmHg 94%
    05:00 +14°C° 0 mm 3 mps 736 mmHg 88%
    06:00 +17°C° 0 mm 3 mps 736 mmHg 82%
    07:00 +19°C° 0 mm 3 mps 736 mmHg 77%
    08:00 +20°C° 0.3 mm 3 mps 736 mmHg 72%
    09:00 +22°C° 0.3 mm 4 mps 736 mmHg 68%
    10:00 +23°C° 0.3 mm 4 mps 736 mmHg 64%
    11:00 +23°C° 0.7 mm 4 mps 736 mmHg 63%
    12:00 +25°C° 0.7 mm 4 mps 736 mmHg 62%
    13:00 +25°C° 0.7 mm 4 mps 735 mmHg 61%
    14:00 +25°C° 0.6 mm 4 mps 735 mmHg 63%
    15:00 +23°C° 0.6 mm 4 mps 735 mmHg 65%
    16:00 +24°C° 0.6 mm 3 mps 735 mmHg 67%
    17:00 +22°C° 0.2 mm 3 mps 734 mmHg 73%
    18:00 +21°C° 0.2 mm 2 mps 734 mmHg 78%
    19:00 +20°C° 0.2 mm 2 mps 734 mmHg 83%
    20:00 +19°C° 0 mm 2 mps 734 mmHg 84%
    21:00 +18°C° 0 mm 2 mps 734 mmHg 86%
    22:00 +17°C° 0 mm 2 mps 734 mmHg 88%
    23:00 +17°C° 0.1 mm 2 mps 734 mmHg 89%

    Day after tomorrow, 28 May, Tuesday

    Time Temperature Precipitation Wind Pressure Humidity
    00:00 +17°C° 0.1 mm 2 mps 733 mmHg 90%
    01:00 +17°C° 0.1 mm 2 mps 733 mmHg 91%
    02:00 +16°C° 0.7 mm 2 mps 732 mmHg 93%
    03:00 +16°C° 0.7 mm 2 mps 732 mmHg 94%
    04:00 +16°C° 0.7 mm 1 mps 732 mmHg 96%
    05:00 +17°C° 0 mm 2 mps 731 mmHg 94%
    06:00 +18°C° 0 mm 2 mps 731 mmHg 91%
    07:00 +19°C° 0 mm 3 mps 731 mmHg 89%
    08:00 +20°C° 0.2 mm 3 mps 731 mmHg 81%
    09:00 +22°C° 0.2 mm 3 mps 731 mmHg 73%
    10:00 +25°C° 0.2 mm 4 mps 731 mmHg 65%
    11:00 +23°C° 0.7 mm 4 mps 731 mmHg 67%
    12:00 +23°C° 0.7 mm 4 mps 730 mmHg 69%
    13:00 +23°C° 0.7 mm 5 mps 730 mmHg 71%
    14:00 +23°C° 1.2 mm 4 mps 730 mmHg 71%
    15:00 +24°C° 1.2 mm 3 mps 730 mmHg 72%
    16:00 +22°C° 1.2 mm 3 mps 729 mmHg 73%
    17:00 +21°C° 1.3 mm 2 mps 729 mmHg 78%
    18:00 +20°C° 1.3 mm 2 mps 729 mmHg 83%
    19:00 +19°C° 1.3 mm 2 mps 729 mmHg 89%
    20:00 +18°C° 0.7 mm 2 mps 729 mmHg 90%
    21:00 +17°C° 0.7 mm 2 mps 730 mmHg 90%
    22:00 +17°C° 0.7 mm 2 mps 730 mmHg 91%
    23:00 +16°C° 0.1 mm 2 mps 730 mmHg 93%

    29 May, Wednesday

    Time Temperature Precipitation Wind Pressure Humidity
    00:00 +15°C° 0.1 mm 2 mps 730 mmHg 95%
    01:00 +14°C° 0.1 mm 3 mps 731 mmHg 97%
    02:00 +14°C° 0.1 mm 3 mps 731 mmHg 97%
    03:00 +14°C° 0.1 mm 4 mps 731 mmHg 97%
    04:00 +13°C° 0.1 mm 4 mps 732 mmHg 96%
    05:00 +13°C° 0.1 mm 4 mps 732 mmHg 96%
    06:00 +12°C° 0.1 mm 4 mps 733 mmHg 95%
    07:00 +10°C° 0.1 mm 5 mps 733 mmHg 94%
    08:00 +10°C° 0.6 mm 5 mps 734 mmHg 94%
    09:00 +9°C° 0.6 mm 5 mps 734 mmHg 94%
    10:00 +9°C° 0.6 mm 5 mps 735 mmHg 93%
    11:00 +9°C° 0.2 mm 5 mps 735 mmHg 92%
    12:00 +9°C° 0.2 mm 5 mps 736 mmHg 90%
    13:00 +10°C° 0.2 mm 5 mps 736 mmHg 89%
    14:00 +10°C° 0.1 mm 5 mps 737 mmHg 87%
    15:00 +10°C° 0.1 mm 5 mps 737 mmHg 86%
    16:00 +10°C° 0.1 mm 5 mps 737 mmHg 84%
    17:00 +10°C° 0.1 mm 5 mps 738 mmHg 84%
    18:00 +11°C° 0.1 mm 4 mps 738 mmHg 85%
    19:00 +11°C° 0.1 mm 3 mps 739 mmHg 85%
    20:00 +10°C° 0 mm 3 mps 739 mmHg 85%
    21:00 +9°C° 0 mm 3 mps 740 mmHg 85%
    22:00 +9°C° 0 mm 2 mps 740 mmHg 85%
    23:00 +9°C° 0 mm 3 mps 741 mmHg 82%

    30 May, Thursday

    Time Temperature Precipitation Wind Pressure Humidity
    00:00 +8°C° 0 mm 3 mps 741 mmHg 78%
    01:00 +8°C° 0 mm 3 mps 741 mmHg 74%
    02:00 +7°C° 0 mm 3 mps 742 mmHg 76%
    03:00 +6°C° 0 mm 2 mps 742 mmHg 78%
    04:00 +6°C° 0 mm 2 mps 742 mmHg 80%
    05:00 +7°C° 0 mm 2 mps 743 mmHg 74%
    06:00 +8°C° 0 mm 2 mps 743 mmHg 68%
    07:00 +10°C° 0 mm 2 mps 743 mmHg 62%
    08:00 +11°C° 0 mm 3 mps 744 mmHg 56%
    09:00 +13°C° 0 mm 3 mps 744 mmHg 50%
    10:00 +14°C° 0 mm 3 mps 744 mmHg 44%
    11:00 +16°C° 0 mm 3 mps 744 mmHg 43%
    12:00 +17°C° 0 mm 3 mps 744 mmHg 42%
    13:00 +18°C° 0 mm 3 mps 744 mmHg 41%
    14:00 +18°C° 0 mm 3 mps 744 mmHg 42%
    15:00 +18°C° 0 mm 2 mps 743 mmHg 44%
    16:00 +18°C° 0 mm 2 mps 743 mmHg 45%
    17:00 +17°C° 0 mm 2 mps 743 mmHg 52%
    18:00 +16°C° 0 mm 1 mps 743 mmHg 59%
    19:00 +14°C° 0 mm 1 mps 743 mmHg 66%
    20:00 +13°C° 0 mm 1 mps 743 mmHg 68%
    21:00 +11°C° 0 mm 0 mps 743 mmHg 70%
    22:00 +10°C° 0 mm 0 mps 743 mmHg 73%
    23:00 +9°C° 0 mm 0 mps 743 mmHg 74%

    31 May, Friday

    Time Temperature Precipitation Wind Pressure Humidity
    00:00 +9°C° 0 mm 0 mps 742 mmHg 75%
    01:00 +9°C° 0 mm 0 mps 742 mmHg 76%
    02:00 +8°C° 0 mm 0 mps 742 mmHg 77%
    03:00 +8°C° 0 mm 0 mps 742 mmHg 78%
    04:00 +9°C° 0 mm 1 mps 741 mmHg 78%
    05:00 +11°C° 0 mm 1 mps 741 mmHg 73%
    06:00 +13°C° 0 mm 1 mps 741 mmHg 67%
    07:00 +15°C° 0 mm 2 mps 741 mmHg 62%
    08:00 +16°C° 0 mm 2 mps 741 mmHg 57%
    09:00 +18°C° 0 mm 2 mps 740 mmHg 52%
    10:00 +19°C° 0 mm 2 mps 740 mmHg 48%
    11:00 +20°C° 0 mm 2 mps 740 mmHg 47%
    12:00 +21°C° 0 mm 2 mps 740 mmHg 46%
    13:00 +21°C° 0 mm 2 mps 739 mmHg 45%
    14:00 +20°C° 0.4 mm 3 mps 740 mmHg 57%
    15:00 +19°C° 0.4 mm 5 mps 740 mmHg 69%
    16:00 +16°C° 0.4 mm 6 mps 740 mmHg 81%
    17:00 +14°C° 0.9 mm 6 mps 740 mmHg 85%
    18:00 +11°C° 0.9 mm 7 mps 741 mmHg 88%
    19:00 +9°C° 0.9 mm 7 mps 741 mmHg 92%
    20:00 +8°C° 0.3 mm 6 mps 742 mmHg 89%
    21:00 +7°C° 0.3 mm 6 mps 743 mmHg 87%
    22:00 +5°C° 0.3 mm 5 mps 743 mmHg 84%
    23:00 +5°C° 0 mm 5 mps 744 mmHg 85%
    Show more